K4WOF Weather Reports


time (UTC)temp
C
wind
direction
speed
KPH
gust
KPH
rain 1hr
cm
rain 24hr
cm
rain mn
cm
humidity
%
barometer
mb
20260504050323 23 300 9.7 22.5 0.00 0.61 0.00 80 1016.2
20260504044821 23 295 11.3 22.5 0.00 0.61 0.00 80 1016.3
20260504043343 23 322 9.7 25.7 0.00 0.61 0.00 80 1016.4
20260504041818 23 272 9.7 20.9 0.00 0.61 0.00 80 1016.5
20260504040340 23 339 12.9 20.9 0.00 0.61 0.00 81 1016.6
20260504034843 23 300 9.7 27.4 0.00 0.61 0.61 80 1016.8
20260504033321 23 318 11.3 22.5 0.00 0.61 0.61 80 1016.8
20260504031819 23 320 9.7 20.9 0.00 0.61 0.61 81 1017.0
20260504030320 23 330 9.7 22.5 0.00 0.61 0.61 81 1016.9
20260504024817 23 311 11.3 22.5 0.00 0.61 0.61 80 1016.9
20260504023318 23 299 12.9 22.5 0.00 0.61 0.61 80 1016.9
20260504021819 23 318 11.3 24.1 0.00 0.61 0.61 80 1016.9
20260504020321 23 297 8.0 19.3 0.00 0.61 0.61 79 1016.6
20260504014842 23 347 9.7 25.7 0.00 0.61 0.61 80 1016.5
20260504013320 23 291 11.3 22.5 0.00 0.61 0.61 80 1016.4
20260504011822 22 270 11.3 25.7 0.00 0.61 0.61 80 1016.4
20260504010322 23 320 8.0 17.7 0.00 0.61 0.61 81 1016.3
20260504004822 23 284 9.7 16.1 0.00 0.61 0.61 80 1016.4
20260504003323 23 309 6.4 20.9 0.00 0.61 0.61 80 1016.3
20260504001822 23 355 9.7 22.5 0.00 0.61 0.61 80 1016.1
20260504000323 23 303 8.0 20.9 0.00 0.61 0.61 81 1016.0
20260503234826 22 312 9.7 20.9 0.00 0.61 0.61 81 1016.0
20260503233327 22 302 9.7 19.3 0.00 0.61 0.61 82 1015.9
20260503231830 22 328 11.3 22.5 0.00 0.61 0.61 81 1015.7
20260503230330 22 287 9.7 24.1 0.00 0.61 0.61 82 1015.8
20260503224832 22 289 9.7 24.1 0.00 0.61 0.61 81 1015.6
20260503223355 23 305 9.7 22.5 0.00 0.61 0.61 81 1015.7
20260503221838 23 278 8.0 19.3 0.00 0.61 0.61 80 1015.8
20260503220337 23 299 8.0 16.1 0.00 0.61 0.61 80 1015.9
20260503214817 23 341 8.0 17.7 0.00 0.61 0.61 79 1015.8
20260503213319 23 325 6.4 14.5 0.00 0.61 0.61 80 1015.8
20260503211820 22 315 8.0 17.7 0.00 0.61 0.61 80 1015.9
20260503210342 23 318 9.7 16.1 0.00 0.61 0.61 80 1016.1
20260503204822 22 318 4.8 14.5 0.00 0.61 0.61 80 1016.2
20260503203324 22 317 8.0 16.1 0.00 0.61 0.61 80 1016.3
20260503201843 22 3 6.4 19.3 0.00 0.61 0.61 80 1016.3
20260503200323 22 277 9.7 19.3 0.00 0.61 0.61 80 1016.3
20260503194825 22 268 6.4 19.3 0.00 0.61 0.61 81 1016.3
20260503193326 22 284 8.0 19.3 0.00 0.61 0.61 81 1016.4
20260503191826 22 318 8.0 22.5 0.00 0.61 0.61 82 1016.4
20260503190328 22 247 9.7 22.5 0.03 0.61 0.61 83 1016.8
20260503184830 21 297 6.4 20.9 0.10 0.61 0.61 84 1017.0
20260503183347 21 256 9.7 20.9 0.10 0.61 0.61 84 1017.4
20260503181844 21 296 6.4 17.7 0.10 0.61 0.61 84 1017.6
20260503180324 22 209 6.4 20.9 0.08 0.58 0.58 82 1017.7
20260503174826 22 224 6.4 17.7 0.00 0.51 0.51 81 1017.6
20260503173324 22 310 9.7 17.7 0.00 0.51 0.51 80 1017.7
20260503171823 22 239 9.7 17.7 0.00 0.51 0.51 81 1017.6
20260503170321 22 314 8.0 19.3 0.00 0.51 0.51 81 1017.6
20260503150323 22 285 9.7 20.9 0.00 0.51 0.51 84 1017.9
20260503130333 21 332 8.0 19.3 0.00 0.51 0.51 86 1016.4
20260503110325 21 224 11.3 22.5 0.18 0.51 0.51 91 1015.1
20260503090323 21 212 8.0 16.1 0.05 0.05 0.05 88 1014.6
20260503080335 22 260 6.4 20.9 0.00 0.00 0.00 86 1014.3
20260503071822 22 268 0.0 4.8 0.00 0.00 0.00 86 1013.7
20260503070337 22 184 1.6 4.8 0.00 0.00 0.00 86 1013.4